Location: Cuiry
(49.3858°N, 3.7708°E)
Time: 01:44:20
(UTC+00:00)

UNK - Pass Details

Date: 11 April 2026
Orbit: 653 x 673 km, 98.4° (Epoch: 19 May)

Event Time Altitude Azimuth Distance (km) Brightness Sun altitude
Rises 04:20:31 0° 169° (SSE) 3,010 7.0 -7.2°
Reaches altitude 10° 04:22:45 10° 171° (S) 2,101 6.2 -6.9°
Maximum altitude 04:27:20 74° 256° (WSW) 705 3.7 -6.2°
Drops below altitude 10° 04:31:58 10° 342° (NNW) 2,113 6.3 -5.4°
Sets 04:34:12 0° 345° (NNW) 3,029 7.2 -5.1°
